DW8454 Weather Reports


Display with metric or nautical units.
time (UTC)temp
F
wind
direction
speed
MPH
gust
MPH
rain 1hr
in
rain 24hr
in
rain mn
in
humidity
%
barometer
mb
20190319174048 44 228 1.0 6.0 0.00 0.00 0.00 51 1031.1
20190319173018 45 284 0.0 1.0 0.00 0.00 0.00 50 1031.2
20190319171947 45 245 2.0 8.0 0.00 0.00 0.00 52 1031.2
20190319170942 45 233 2.0 6.0 0.00 0.00 0.00 52 1031.3
20190319165959 43 259 1.0 6.0 0.00 0.00 0.00 54 1031.2
20190319164933 44 211 2.0 0.0 0.00 0.00 0.00 56 1031.2
20190319163917 42 257 1.0 9.0 0.00 0.00 0.00 55 1031.3
20190319162853 42 300 3.0 9.0 0.00 0.00 0.00 58 1031.4
20190319161841 42 291 4.0 7.0 0.00 0.00 0.00 57 1031.4
20190319160857 41 0 3.0 8.0 0.00 0.00 0.00 59 1031.4
20190319155844 42 296 4.0 8.0 0.00 0.00 0.00 55 1031.4
20190319154836 43 262 2.0 8.0 0.00 0.00 0.00 57 1031.2
20190319153804 42 294 1.0 6.0 0.00 0.00 0.00 56 1031.2
20190319152753 42 293 2.0 8.0 0.00 0.00 0.00 57 1031.2
20190319151808 42 236 2.0 6.0 0.00 0.00 0.00 57 1031.2
20190319150739 42 287 0.0 5.0 0.00 0.00 0.00 59 1031.1
20190319145800 41 213 1.0 5.0 0.00 0.00 0.00 61 1031.1
20190319144813 40 261 0.0 4.0 0.00 0.00 0.00 62 1031.1
20190319143818 40 223 0.0 0.0 0.00 0.00 0.00 62 1031.2
20190319142825 39 257 2.0 4.0 0.00 0.00 0.00 65 1031.2
20190319141800 38 263 0.0 4.0 0.00 0.00 0.00 65 1031.1
20190319140748 37 254 0.0 0.0 0.00 0.00 0.00 65 1031.1
20190319135729 37 251 0.0 0.0 0.00 0.00 0.00 65 1031.0
20190319134740 35 247 0.0 0.0 0.00 0.00 0.00 67 1031.0
20190319133723 35 250 0.0 0.0 0.00 0.00 0.00 67 1030.9
20190319132712 34 230 0.0 0.0 0.00 0.00 0.00 68 1030.8
20190319131711 34 230 0.0 0.0 0.00 0.00 0.00 68 1030.7
20190319130723 33 221 1.0 5.0 0.00 0.00 0.00 69 1030.7
20190319125723 32 199 3.0 5.0 0.00 0.00 0.00 71 1030.7
20190319124732 31 194 1.0 3.0 0.00 0.00 0.00 73 1030.7
20190319123728 30 185 1.0 3.0 0.00 0.00 0.00 75 1030.6
20190319122748 29 183 2.0 3.0 0.00 0.00 0.00 77 1030.5
20190319121807 28 184 1.0 3.0 0.00 0.00 0.00 77 1030.4
20190319120756 28 198 0.0 1.0 0.00 0.00 0.00 76 1030.2
20190319115811 28 196 0.0 0.0 0.00 0.00 0.00 76 1030.2
20190319114817 28 196 0.0 0.0 0.00 0.00 0.00 76 1030.1
20190319113834 28 196 0.0 0.0 0.00 0.00 0.00 75 1030.0
20190319112835 28 196 0.0 0.0 0.00 0.00 0.00 75 1030.0
20190319111821 28 197 0.0 0.0 0.00 0.00 0.00 76 1029.9
20190319110753 28 196 0.0 1.0 0.00 0.00 0.00 76 1029.8
20190319105724 28 196 0.0 1.0 0.00 0.00 0.00 75 1029.7
20190319104716 28 207 0.0 0.0 0.00 0.00 0.00 74 1029.7
20190319103701 28 210 0.0 0.0 0.00 0.00 0.00 74 1029.6
20190319102632 28 211 0.0 0.0 0.00 0.00 0.00 74 1029.5
20190319101640 29 210 0.0 0.0 0.00 0.00 0.00 74 1029.4
20190319100626 29 202 0.0 1.0 0.00 0.00 0.00 74 1029.4
20190319095556 29 207 0.0 1.0 0.00 0.00 0.00 74 1029.2
20190319094614 29 206 0.0 2.0 0.00 0.00 0.00 74 1029.2
20190319093545 29 202 1.0 3.0 0.00 0.00 0.00 74 1029.1
20190319092516 29 206 1.0 4.0 0.00 0.00 0.00 74 1029.1
20190319091443 29 205 2.0 4.0 0.00 0.00 0.00 73 1029.1
20190319090441 29 186 1.0 2.0 0.00 0.00 0.00 73 1028.9
20190319085428 29 203 1.0 3.0 0.00 0.00 0.00 73 1028.9
20190319084446 30 198 2.0 4.0 0.00 0.00 0.00 73 1028.9
20190319083504 30 199 2.0 4.0 0.00 0.00 0.00 73 1028.9
20190319082457 30 232 2.0 4.0 0.00 0.00 0.00 73 1028.9
20190319081446 30 190 3.0 4.0 0.00 0.00 0.00 73 1029.0
20190319080422 30 205 1.0 4.0 0.00 0.00 0.00 73 1029.1
20190319075400 30 188 2.0 4.0 0.00 0.00 0.00 73 1029.2
20190319074355 30 189 2.0 5.0 0.00 0.00 0.00 73 1029.4
20190319073411 30 186 3.0 5.0 0.00 0.00 0.00 73 1029.5
20190319072344 30 183 4.0 7.0 0.00 0.00 0.00 73 1029.7
20190319071318 30 177 0.0 0.0 0.00 0.00 0.00 73 1029.7
20190319070300 30 188 0.0 0.0 0.00 0.00 0.00 73 1029.8
20190319065319 30 196 0.0 0.0 0.00 0.00 0.00 73 1029.9
20190319064316 30 183 0.0 0.0 0.00 0.00 0.00 74 1029.9
20190319063250 29 182 0.0 0.0 0.00 0.00 0.00 74 1029.8
20190319062315 29 189 0.0 0.0 0.00 0.00 0.00 74 1029.9
20190319061253 29 186 0.0 0.0 0.00 0.00 0.00 75 1029.8
20190319060234 28 184 0.0 0.0 0.00 0.00 0.00 75 1029.9
20190319055249 28 190 0.0 0.0 0.00 0.00 0.00 75 1029.8
20190319054248 28 176 0.0 0.0 0.00 0.00 0.00 74 1029.7
20190319053232 28 175 0.0 0.0 0.00 0.00 0.00 74 1029.7
20190319052207 28 193 0.0 0.0 0.00 0.00 0.00 74 1029.6
20190319051146 29 196 0.0 0.0 0.00 0.00 0.00 75 1029.7
20190319050120 29 180 0.0 0.0 0.00 0.00 0.00 76 1029.8
20190319045122 28 186 0.0 0.0 0.00 0.00 0.00 76 1029.8
20190319044134 28 196 0.0 0.0 0.00 0.00 0.00 77 1029.8
20190319043123 28 209 0.0 0.0 0.00 0.00 0.00 77 1029.8
20190319042110 28 213 0.0 0.0 0.00 0.00 0.00 77 1029.8
20190319041054 27 217 0.0 0.0 0.00 0.00 0.00 77 1029.8
20190319040104 27 218 0.0 0.0 0.00 0.00 0.00 76 1029.7
20190319035111 27 218 0.0 0.0 0.00 0.00 0.00 76 1029.7
20190319034039 27 229 0.0 0.0 0.00 0.00 0.00 76 1029.7
20190319033020 27 233 0.0 0.0 0.00 0.00 0.00 76 1029.7
20190319032004 27 234 0.0 0.0 0.00 0.00 0.00 75 1029.7
20190319031007 27 149 0.0 0.0 0.00 0.00 0.00 74 1029.6
20190319030000 28 144 0.0 0.0 0.00 0.00 0.00 74 1029.5
20190319025018 28 144 0.0 0.0 0.00 0.00 0.00 73 1029.5
20190319023956 28 144 0.0 0.0 0.00 0.00 0.00 71 1029.5
20190319023001 28 144 0.0 0.0 0.00 0.00 0.00 69 1029.5
20190319021952 28 144 0.0 0.0 0.00 0.00 0.00 69 1029.4
20190319020957 29 144 0.0 0.0 0.00 0.00 0.00 68 1029.4
20190319015950 29 277 0.0 0.0 0.00 0.00 0.00 68 1029.3
20190319014926 29 277 0.0 0.0 0.00 0.00 0.00 68 1029.2
20190319013907 30 294 0.0 0.0 0.00 0.00 0.00 67 1029.2
20190319012856 30 294 0.0 0.0 0.00 0.00 0.00 66 1029.1
20190319011822 31 294 0.0 0.0 0.00 0.00 0.00 65 1029.1
20190319010824 31 295 0.0 0.0 0.00 0.00 0.00 64 1029.1
20190319005832 31 295 0.0 0.0 0.00 0.00 0.00 63 1029.1
20190319004835 32 295 0.0 0.0 0.00 0.00 0.00 63 1029.0
20190319003849 33 295 0.0 0.0 0.00 0.00 0.00 62 1029.0
20190319002840 33 295 0.0 0.0 0.00 0.00 0.00 60 1029.0
20190319001837 34 295 0.0 0.0 0.00 0.00 0.00 60 1028.9
20190319000836 35 295 0.0 0.0 0.00 0.00 0.00 59 1028.7
20190318235858 35 295 0.0 0.0 0.00 0.00 0.00 58 1028.7
20190318234848 36 295 0.0 0.0 0.00 0.00 0.00 58 1028.7
20190318233912 37 295 0.0 0.0 0.00 0.00 0.00 58 1028.5
20190318232857 37 295 0.0 0.0 0.00 0.00 0.00 58 1028.5
20190318231910 37 295 0.0 0.0 0.00 0.00 0.00 59 1028.4
20190318230844 37 295 0.0 0.0 0.00 0.00 0.00 58 1028.4
20190318225906 37 295 2.0 3.0 0.00 0.00 0.00 59 1028.3
20190318224915 37 303 2.0 3.0 0.00 0.00 0.00 59 1028.3
20190318223844 38 310 1.0 6.0 0.00 0.00 0.00 61 1028.3
20190318222900 38 292 2.0 6.0 0.00 0.00 0.00 62 1028.3
20190318221925 38 316 3.0 6.0 0.00 0.00 0.00 62 1028.4
20190318220930 38 343 3.0 6.0 0.00 0.00 0.00 62 1028.4
20190318215951 38 296 3.0 6.0 0.00 0.00 0.00 62 1028.4
20190318214944 38 304 3.0 6.0 0.00 0.00 0.00 63 1028.3
20190318213911 38 290 3.0 7.0 0.00 0.00 0.00 64 1028.2
20190318212931 38 291 3.0 9.0 0.00 0.00 0.00 65 1028.3
20190318211919 38 263 4.0 9.0 0.00 0.00 0.00 65 1028.2
20190318210929 39 338 4.0 9.0 0.00 0.00 0.00 67 1028.2
20190318205945 39 285 4.0 8.0 0.00 0.00 0.00 66 1028.2
20190318205006 39 304 4.0 9.0 0.00 0.00 0.00 65 1028.1
20190318204004 39 294 4.0 9.0 0.00 0.00 0.00 66 1028.1
20190318202930 39 297 4.0 9.0 0.00 0.00 0.00 65 1028.0
20190318201936 39 261 3.0 11.0 0.00 0.00 0.00 65 1028.0
20190318200958 38 0 5.0 11.0 0.00 0.00 0.00 65 1028.0
20190318200006 39 267 4.0 9.0 0.00 0.00 0.00 66 1028.0
20190318194940 40 297 5.0 11.0 0.00 0.00 0.00 64 1028.0
20190318193922 38 298 5.0 11.0 0.00 0.00 0.00 67 1027.9
20190318192855 37 255 3.0 7.0 0.00 0.00 0.00 65 1027.9
20190318191852 38 289 4.0 10.0 0.00 0.00 0.00 63 1027.9
20190318190853 39 298 4.0 10.0 0.00 0.00 0.00 61 1028.0
20190318185916 39 329 3.0 8.0 0.00 0.00 0.00 60 1027.9
20190318184851 41 286 3.0 8.0 0.00 0.00 0.00 59 1028.0
20190318183915 40 252 3.0 8.0 0.00 0.00 0.00 64 1028.0
20190318182927 38 249 3.0 8.0 0.00 0.00 0.00 66 1028.2
20190318181926 39 258 3.0 6.0 0.00 0.00 0.00 65 1028.3
20190318180923 38 290 3.0 6.0 0.00 0.00 0.00 63 1028.3
20190318175910 38 212 2.0 6.0 0.00 0.00 0.00 68 1028.3
20190318174838 39 265 2.0 7.0 0.00 0.00 0.00 64 1028.5